Lid_Strength_Index
1 1 1 1 2 2 2 3 4 7 6 3 3 1 0 0 -0 -0 -0 -1 -1 -0 -0 1 1 0 0 -0 -0 -0 -0 -0 0 0 -0 -0 -1 -1
1 1 1 1 1 1 2 2 2 4 6 4 3 2 2 2 1 0 -0 -1 -0 -0 0 1 1 1 0 0 0 0 0 0 0 0 0 0 -0 -0
1 1 1 1 1 1 2 3 4 4 6 5 3 3 2 2 1 1 1 1 -0 -0 0 1 1 1 1 1 1 1 1 1 1 1 0 0 0 -0
2 1 2 1 1 2 3 2 3 3 4 5 5 4 3 3 3 3 2 -0 0 -0 -0 1 1 2 2 2 2 2 2 2 1 1 1 1 0 0
1 2 1 1 2 2 1 2 1 1 2 3 4 4 4 4 4 3 3 2 0 -1 0 2 2 1 2 3 3 3 4 4 3 2 2 2 1 1
3 2 3 3 3 3 3 3 2 3 3 4 4 4 4 4 4 4 4 3 2 0 -1 1 0 1 2 3 4 4 5 6 5 5 4 3 3 2
4 4 3 3 3 4 5 6 5 5 4 4 3 4 5 5 6 4 4 4 3 2 2 2 1 1 2 2 1 2 4 4 6 6 6 6 5 4
7 7 5 5 6 5 5 5 5 7 8 6 5 5 5 5 5 5 4 4 5 1 2 2 1 2 2 3 1 2 3 4 5 5 6 7 6 6
8 8 6 5 6 7 6 5 6 5 5 7 8 6 6 5 4 4 4 4 4 3 3 4 2 2 2 2 2 3 3 3 4 5 5 6 7 7
8 8 8 7 7 6 7 8 8 8 8 7 8 7 6 6 7 6 6 5 4 4 3 5 3 3 1 2 2 2 3 3 4 5 5 6 7 8
8 8 7 8 5 4 6 8 8 9 6 5 5 5 4 4 4 7 9 9 9 7 7 6 5 4 3 2 0 1 2 3 4 4 5 6 7 8
9 8 6 6 5 5 7 8 9 9 9 9 8 7 6 7 4 6 7 8 8 9 7 8 6 5 5 2 1 0 2 3 5 5 5 6 7 5
9 9 8 6 5 6 6 8 8 7 7 8 8 8 8 8 7 7 7 7 8 8 5 6 7 7 6 4 2 1 2 2 2 2 6 8 9 6
9 8 9 6 6 6 6 6 6 6 8 9 9 8 9 9 8 7 7 7 6 6 5 5 6 6 6 6 5 3 1 1 2 2 1 6 9 10
8 8 5 6 6 7 6 6 6 8 9 9 10 9 8 7 8 8 7 7 6 6 4 4 5 5 5 5 5 3 3 2 1 1 1 1 2 6
7 8 6 5 5 6 6 8 9 9 9 8 8 7 6 7 7 7 8 8 8 7 5 4 3 3 3 3 2 3 2 3 3 2 1 2 2 3
7 9 9 8 8 7 6 7 7 8 8 8 7 7 7 7 7 8 8 9 9 9 8 7 6 5 3 3 4 3 2 2 1 1 3 2 2 1
9 9 8 8 7 6 5 5 5 5 7 7 7 7 7 8 8 8 9 9 9 9 9 7 7 7 7 5 1 3 2 2 2 2 2 3 3 1
9 7 6 6 6 5 5 5 5 5 5 6 6 7 7 7 7 8 8 7 7 8 8 7 8 9 8 9 5 3 2 2 2 3 2 2 3 2
7 5 6 5 5 6 6 6 6 6 6 6 7 7 7 7 7 8 7 8 8 7 7 7 7 8 9 9 7 5 4 2 2 3 3 2 2 2
7 7 7 7 7 7 7 7 7 7 7 7 7 7 7 7 8 8 8 8 9 9 9 8 7 5 7 7 7 5 3 4 2 2 2 3 4 4
7 8 7 7 7 7 7 7 7 7 8 9 9 8 8 8 8 8 9 9 9 9 8 7 7 8 7 8 7 6 4 2 1 4 3 3 3 5
8 8 8 8 8 7 7 8 8 8 8 10 11 11 8 8 8 8 8 9 9 9 8 8 8 7 7 7 6 5 4 3 2 3 2 4 5 4